Weather History for KTQE - December, 2012

Change the Weather History Date:

Sunday, December 9, 2012

  Actual Average Record
Temperature  
Mean Temperature 26 °F -  
Max Temperature 37 °F 36 °F 65 °F (1957)
Min Temperature 14 °F 17 °F -11 °F (2005)
Degree Days  
Heating Degree Days 39    
Moisture  
Dew Point 16 °F    
Average Humidity 67    
Maximum Humidity 83    
Minimum Humidity 56    
Precipitation  
Precipitation 0.00 in - - ()
Sea Level Pressure  
Sea Level Pressure 29.99 in    
Wind  
Wind Speed 16 mph (WNW)    
Max Wind Speed 32 mph    
Max Gust Speed 41 mph    
Visibility 9 miles    
Events      
Averages and records for this station are not official NWS values.
T = Trace of Precipitation, MM = Missing Value Source: NWS Daily Summary

Daily Weather History Graph

Daily Weather History Graph

Search for Another Location

Airport or City:

Trip Planner

Search our weather history database for the weather conditions in past years. The results will help you decide how hot, cold, wet, or windy it might be!

Date:

Astronomy

Dec. 09, 2012 Rise Set
Actual Time 7:40 AM CST 4:53 PM CST
Civil Twilight 7:09 AM CST 5:25 PM CST
Nautical Twilight 6:34 AM CST 6:00 PM CST
Astronomical Twilight 6:00 AM CST 6:34 PM CST
Moon 3:12 AM CST (12/9) 2:03 PM CST (12/9)
Length of Visible Light 10h 16m
Length of Day
9h 13m
Waning Crescent, 18% of the Moon is Illuminated
Dec 9
Waning Crescent
Dec 13
New
Dec 19
First Quarter
Dec 28
Full
Jan 4
Last Quarter

Hourly Weather History & Observations

Time (CST) Temp. Windchill Dew Point Humidity Pressure Visibility Wind Dir Wind Speed Gust Speed Precip Events Conditions
12:54 AM 37.0 °F 30.4 °F 30.0 °F 76% 29.88 in 4.0 mi SSE 9.2 mph - N/A   Haze
1:05 AM 37.4 °F 30.8 °F 30.2 °F 75% 29.86 in 4.0 mi SSE 9.2 mph - N/A   Haze
1:54 AM 37.0 °F 31.0 °F 30.9 °F 79% 29.87 in 4.0 mi SSE 8.1 mph - N/A   Haze
2:54 AM 37.0 °F 31.0 °F 32.0 °F 82% 29.86 in 4.0 mi SE 8.1 mph - 0.00 in   Haze
3:54 AM 37.0 °F 29.8 °F 32.0 °F 82% 29.83 in 4.0 mi SSE 10.4 mph - N/A   Haze
4:54 AM 37.9 °F 31.5 °F 33.1 °F 83% 29.83 in 4.0 mi South 9.2 mph - N/A   Haze
5:54 AM 37.9 °F 30.9 °F 33.1 °F 83% 29.85 in 4.0 mi SW 10.4 mph - N/A   Haze
6:54 AM 35.1 °F 25.9 °F 27.0 °F 72% 29.88 in 10.0 mi WNW 13.8 mph - N/A   Mostly Cloudy
7:05 AM 35.6 °F 26.6 °F 26.6 °F 70% 29.87 in 10.0 mi WNW 13.8 mph - N/A   Scattered Clouds
7:40 AM 32.0 °F 19.5 °F 23.0 °F 69% 29.91 in 10.0 mi WNW 21.9 mph 27.6 mph N/A   Mostly Cloudy
7:54 AM 30.0 °F 17.9 °F 21.0 °F 69% 29.93 in 10.0 mi NW 18.4 mph 26.5 mph N/A   Overcast
8:12 AM 28.4 °F 16.2 °F 19.4 °F 69% 29.93 in 10.0 mi WNW 17.3 mph 25.3 mph N/A   Scattered Clouds
8:54 AM 26.1 °F 12.0 °F 16.0 °F 66% 29.95 in 10.0 mi WNW 20.7 mph 26.5 mph N/A   Partly Cloudy
9:54 AM 27.0 °F 12.8 °F 16.0 °F 63% 29.98 in 10.0 mi NW 21.9 mph 28.8 mph N/A   Clear
10:40 AM 26.6 °F 13.1 °F 15.8 °F 64% 29.97 in 10.0 mi WNW 19.6 mph 26.5 mph N/A   Mostly Cloudy
10:54 AM 27.0 °F 14.3 °F 16.0 °F 63% 29.99 in 10.0 mi NW 17.3 mph 25.3 mph N/A   Overcast
11:54 AM 27.0 °F 11.6 °F 12.9 °F 56% 29.99 in 10.0 mi NW 26.5 mph 32.2 mph N/A   Overcast
12:54 PM 25.0 °F 10.2 °F 12.0 °F 58% 29.99 in 10.0 mi WNW 21.9 mph 31.1 mph N/A   Overcast
1:54 PM 23.0 °F 5.1 °F 10.0 °F 58% 29.99 in 10.0 mi WNW 31.1 mph 39.1 mph N/A   Overcast
2:54 PM 21.0 °F 2.7 °F 8.1 °F 57% 30.02 in 10.0 mi NW 29.9 mph 36.8 mph N/A   Overcast
3:54 PM 19.9 °F 0.7 °F 8.1 °F 60% 30.04 in 10.0 mi NW 32.2 mph 38.0 mph N/A   Overcast
4:54 PM 18.0 °F -1.1 °F 7.0 °F 62% 30.07 in 10.0 mi NW 28.8 mph 38.0 mph N/A   Overcast
5:54 PM 18.0 °F -1.1 °F 7.0 °F 62% 30.09 in 10.0 mi NW 28.8 mph 41.4 mph N/A   Overcast
6:54 PM 16.0 °F -2.1 °F 6.1 °F 65% 30.13 in 10.0 mi NW 23.0 mph 39.1 mph N/A   Overcast
7:40 PM 15.8 °F -3.1 °F 6.8 °F 68% 30.11 in 10.0 mi WNW 25.3 mph 31.1 mph N/A   Overcast
7:54 PM 15.1 °F -3.7 °F 6.1 °F 68% 30.15 in 10.0 mi NW 24.2 mph 32.2 mph N/A   Overcast
8:26 PM 15.8 °F -4.4 °F 5.0 °F 62% 30.11 in 10.0 mi NW 29.9 mph 38.0 mph N/A   Overcast
8:54 PM 15.1 °F -3.3 °F 3.9 °F 61% 30.17 in 10.0 mi NW 23.0 mph 35.7 mph N/A   Overcast
9:54 PM 15.1 °F -4.0 °F 5.0 °F 64% 30.17 in 10.0 mi NW 25.3 mph 29.9 mph N/A   Overcast
10:54 PM 15.1 °F -2.9 °F 3.0 °F 59% 30.17 in 10.0 mi NW 21.9 mph 29.9 mph N/A   Overcast
11:54 PM 14.0 °F -4.7 °F 1.9 °F 59% 30.15 in 10.0 mi NNW 23.0 mph 32.2 mph N/A   Overcast